Overview Statistics Trail Chart Weather Telemetry Raw packets
 

This is the latest recevied weather packets stored in our database for station/object IU3OVK-13. If no packets are shown the sender has not sent any weather packets the latest 10 day(s).

<< 29 30 31 32 33 34 35 >>
Time Temp. Humidity Pressure Rain* Wind** Luminosity Snow
1788033009 22.78° C 99% 1005.4 hPa - - - -
1788032388 23.89° C 99% 1005.2 hPa - - - -
1788031768 23.89° C 99% 1005.1 hPa - - - -
1788031157 23.33° C 99% 1005.1 hPa - - - -
1788030528 23.33° C 99% 1005 hPa - - - -
1788029907 24.44° C 99% 1005 hPa - - - -
1788029287 24.44° C 99% 1004.7 hPa - - - -
1788028667 23.89° C 99% 1004.5 hPa - - - -
1788027427 24.44° C 99% 1004.8 hPa - - - -
1788026806 25.56° C 99% 1005.3 hPa - - - -
1788025566 26.11° C 99% 1005.8 hPa - - - -
1788024946 26.11° C 99% 1006 hPa - - - -
1788024326 26.11° C 99% 1006.4 hPa - - - -
1788023706 26.67° C 99% 1006.2 hPa - - - -
1788023085 27.22° C 99% 1005.8 hPa - - - -
1788022465 27.78° C 99% 1006.2 hPa - - - -
1788021845 28.33° C 99% 1006.5 hPa - - - -
1788021225 28.33° C 99% 1006.6 hPa - - - -
1788020604 28.33° C 99% 1006.1 hPa - - - -
1788019984 28.33° C 99% 1006 hPa - - - -
1788019368 28.89° C 99% 1006.1 hPa - - - -
1788018744 28.33° C 99% 1006.6 hPa - - - -
1788018124 28.33° C 99% 1006.1 hPa - - - -
1788017503 28.33° C 99% 1006.2 hPa - - - -
1788016883 28.33° C 99% 1006.3 hPa - - - -

* Rain since midnight (hover to see other rain measurements)
** Current wind speed in m/s (hover to see current wind gust speed)